Theta_e
312 308 309 308 308 308 308 309 308 309 309 309 309 310 310 311 311 311 311 311 311 311 312 311 312 312 311 310 310 310 309 309 309 310 311 311 312 312 314 316 315 313 311 311 311 311 311 311 312 313 315 316 315 317 317 318 318 319 331 331 322 323 322 320 322 317 317 321 314 312 314 315 316 314 314 315 315 315 315 314 315 317 317 316 318 317 315 314
311 309 309 308 309 308 309 309 309 309 310 310 310 311 311 311 311 311 311 311 311 311 311 311 311 311 310 310 310 309 309 309 309 310 311 311 312 312 314 315 314 312 311 311 311 311 312 312 313 313 315 315 314 316 316 317 317 321 329 326 327 332 320 315 318 312 313 317 313 313 314 315 316 315 314 316 315 314 316 315 315 316 317 317 317 317 315 314
311 309 309 309 309 309 309 309 310 310 310 310 310 311 311 311 311 311 311 311 311 311 311 311 311 310 309 310 310 309 309 309 309 310 311 311 312 313 314 315 313 312 311 311 311 311 312 313 313 314 315 315 316 316 315 317 316 317 320 323 330 328 316 312 314 312 314 314 313 313 313 314 315 315 315 315 314 313 315 315 315 315 317 317 316 316 315 313
311 309 309 309 309 309 309 310 310 310 310 310 310 311 311 311 311 311 311 311 311 311 311 311 310 310 309 310 310 309 309 309 309 310 311 311 314 315 314 314 312 311 312 311 311 313 313 313 313 315 315 314 315 315 315 316 315 315 320 327 323 315 314 315 314 314 314 314 313 313 313 314 314 315 314 314 315 314 314 315 316 315 315 316 316 315 315 314
310 310 309 309 309 309 310 310 310 310 310 310 310 311 311 311 311 311 311 311 311 310 310 310 309 309 309 310 310 309 309 309 310 310 311 311 314 316 314 312 312 312 312 311 312 314 314 313 313 314 314 313 313 314 315 314 315 315 316 318 314 311 316 315 313 315 314 314 314 312 313 315 314 314 313 314 317 317 315 315 316 316 315 316 315 315 315 314
309 309 308 309 309 309 310 310 310 310 310 310 310 310 310 311 311 311 311 311 310 310 310 310 309 309 310 310 310 309 309 310 311 311 310 312 314 314 312 311 312 312 311 311 313 314 314 313 313 313 313 313 313 313 314 313 314 317 315 312 312 313 315 315 314 314 313 313 313 312 314 315 313 314 313 313 316 316 314 315 316 315 315 314 315 315 315 315
308 309 308 308 309 309 310 310 310 310 310 310 310 310 310 310 311 311 311 311 310 310 310 309 309 309 310 310 309 309 309 311 313 312 310 312 314 312 311 311 312 312 311 312 312 313 314 313 313 313 313 313 313 312 313 313 313 319 318 312 313 314 313 315 314 314 314 314 314 314 314 314 314 315 313 312 314 315 314 315 315 315 315 314 315 315 314 315
308 309 309 308 308 309 309 310 310 310 310 310 310 310 310 310 311 311 311 310 310 310 310 309 310 309 310 310 309 310 310 311 314 314 311 312 313 312 311 311 312 312 311 312 312 312 313 314 313 313 313 313 313 312 313 313 313 317 317 312 313 314 314 315 314 314 314 314 314 314 314 314 314 314 312 313 315 315 314 316 316 316 315 314 314 315 314 314
308 308 309 308 308 308 309 310 310 310 310 310 310 310 310 310 310 310 310 310 310 310 310 309 309 309 309 310 309 309 310 311 313 314 312 312 313 312 312 311 312 312 312 312 311 312 313 313 313 314 314 312 313 313 312 314 313 314 314 313 313 313 313 314 314 314 314 314 314 314 314 314 313 313 315 315 316 316 315 315 316 316 315 315 315 314 315 315
309 308 309 309 308 308 308 309 309 310 310 310 310 310 310 310 310 310 310 310 310 310 310 309 309 309 309 310 309 309 310 311 312 314 313 313 313 312 312 311 312 313 312 312 311 312 313 314 314 314 314 313 312 312 312 314 314 314 313 313 313 313 313 314 313 313 314 314 314 316 315 314 313 314 316 316 315 316 316 316 316 316 316 315 315 315 316 316
311 310 309 309 308 307 307 308 309 309 310 310 310 310 310 309 310 310 310 310 310 310 309 309 309 308 309 309 309 310 312 312 312 313 314 314 313 312 312 312 313 312 311 312 312 313 313 314 314 314 316 314 313 313 312 313 314 314 313 315 314 313 313 313 314 313 314 314 313 315 314 313 313 315 316 315 315 316 315 316 315 316 316 315 316 316 316 316
313 311 309 309 309 308 307 308 308 308 309 309 310 310 309 309 310 309 310 310 310 310 309 309 309 308 309 309 309 311 314 315 314 313 313 314 313 313 313 313 312 312 312 313 314 315 314 315 314 315 316 314 314 315 314 314 314 313 315 318 317 318 318 313 313 313 313 315 314 313 313 315 316 316 316 314 315 316 315 316 315 315 316 315 316 316 316 316
314 313 311 309 309 308 307 307 308 308 308 309 309 310 309 309 309 310 310 310 310 310 309 309 307 308 308 308 309 310 314 316 315 313 313 313 313 313 312 313 313 313 314 314 316 315 315 316 315 315 315 313 315 314 315 313 313 315 314 318 320 321 321 313 311 314 313 314 314 313 314 320 321 315 314 315 314 315 315 316 316 316 316 315 315 316 316 316
315 314 311 309 309 308 307 307 307 308 308 308 309 309 309 309 309 310 310 310 310 310 309 308 306 307 308 309 310 310 313 316 315 313 312 313 313 314 313 314 315 315 315 315 316 315 315 316 316 316 314 314 315 313 317 315 315 317 312 320 323 317 321 318 311 313 314 314 314 313 315 322 323 315 312 315 314 314 315 315 316 316 316 316 316 315 316 316
316 314 312 310 309 309 308 307 307 308 308 308 308 309 309 309 309 309 310 310 310 309 308 307 305 307 308 309 311 310 312 315 315 313 313 314 314 314 315 316 317 317 316 316 315 315 316 316 316 316 314 315 315 315 321 319 322 323 314 322 322 314 324 323 311 312 316 314 313 315 318 321 320 314 314 316 316 315 315 315 315 316 316 316 316 316 316 316
316 314 313 312 310 309 309 308 307 307 308 308 308 309 309 309 309 309 310 310 310 309 307 306 305 307 308 309 312 312 312 314 314 313 314 315 315 316 316 317 317 316 316 316 315 315 315 316 315 315 313 314 316 319 323 320 324 326 318 321 321 315 321 321 313 310 312 314 313 313 318 322 319 314 314 315 315 316 315 315 315 315 316 316 316 316 316 316
315 314 313 313 311 310 309 308 308 307 308 308 308 308 308 309 309 309 310 309 309 308 306 306 306 307 308 310 313 313 312 314 313 314 315 315 315 316 315 316 316 315 316 316 315 314 315 316 314 315 315 313 316 321 320 317 319 321 318 320 321 318 318 319 319 312 310 314 316 315 316 321 320 314 315 316 315 315 314 315 316 316 316 316 317 317 316 316
315 315 314 314 312 311 309 308 308 307 308 308 308 308 308 308 309 309 309 309 308 306 306 308 308 309 310 310 313 314 313 313 313 314 314 315 315 315 315 316 315 315 316 315 315 315 315 314 314 319 318 314 316 318 319 320 318 318 319 318 317 316 315 318 321 314 312 316 316 317 317 319 320 313 314 316 315 314 314 315 315 316 316 316 316 316 316 316
315 314 314 314 313 311 310 308 308 307 307 308 307 307 307 307 307 307 307 307 308 308 308 310 309 311 312 310 312 314 313 313 313 314 314 315 315 315 315 315 315 315 315 315 316 315 315 314 315 319 318 316 317 316 321 324 321 320 322 324 324 321 318 319 321 313 311 316 317 317 318 319 319 316 313 315 315 312 313 315 315 315 315 315 316 315 315 315
316 315 314 313 313 312 310 309 308 307 307 307 307 307 308 308 309 309 308 307 309 310 310 310 308 311 313 309 311 315 313 313 313 313 314 314 314 315 316 315 315 315 315 318 318 314 315 317 317 319 318 318 318 317 318 319 319 319 322 326 325 322 320 318 318 313 309 315 319 316 317 317 318 317 312 312 313 310 310 312 314 315 316 316 316 315 315 315
317 316 315 313 312 312 311 309 308 307 308 307 307 308 308 308 310 311 309 308 309 311 311 311 308 310 313 310 312 315 313 313 313 313 314 314 315 316 315 316 316 316 315 315 316 314 315 318 318 319 316 315 316 315 316 316 317 319 321 324 321 319 320 315 314 315 310 313 320 317 318 318 317 317 312 310 312 311 311 312 313 315 315 316 316 315 316 315
317 316 315 314 312 311 311 309 308 308 308 307 307 308 308 308 310 310 310 308 308 310 311 311 309 310 312 311 313 314 313 313 313 313 314 314 316 315 315 316 317 318 314 313 316 316 317 319 320 314 309 311 313 314 318 320 322 323 320 320 320 318 319 317 315 317 314 313 321 323 321 318 317 318 313 310 312 312 313 313 313 314 314 314 314 314 314 314
317 316 315 314 312 311 311 310 309 308 308 307 307 308 308 309 311 310 309 308 308 309 311 312 310 310 312 312 314 314 313 313 313 313 314 314 316 314 315 316 317 319 316 316 320 318 318 321 317 309 307 313 314 314 319 321 322 324 321 321 322 318 319 320 317 317 315 313 318 321 319 316 316 320 318 311 310 312 313 314 314 313 314 314 314 314 314 315
316 316 315 314 312 311 310 310 309 308 307 307 307 308 308 309 311 310 308 308 308 309 310 312 310 310 313 313 314 314 313 313 313 313 313 314 315 314 315 315 316 318 316 318 319 317 320 317 310 307 311 318 317 314 317 319 317 319 325 329 326 322 322 319 316 318 317 315 316 318 317 322 325 328 328 317 309 310 312 313 314 315 315 316 316 315 315 316
316 316 315 314 312 311 310 310 309 308 307 307 307 308 308 309 311 309 308 309 309 309 310 312 311 311 312 313 314 314 313 313 313 313 313 314 315 314 314 313 315 318 317 317 316 317 319 311 308 313 316 320 320 317 318 320 318 316 323 329 326 327 326 320 319 320 321 318 315 313 315 330 335 328 328 322 313 313 311 308 311 314 314 313 316 316 316 316
315 315 314 314 312 311 309 309 309 307 307 307 308 309 308 309 310 308 310 312 311 310 309 310 312 311 312 314 314 313 313 314 313 313 313 314 314 314 315 313 313 316 316 315 315 317 316 310 313 320 319 318 319 318 317 319 320 317 318 321 325 330 327 324 320 317 321 317 311 312 316 323 325 319 319 319 317 320 317 311 311 313 314 312 312 314 315 316
314 314 313 313 312 311 308 308 308 307 307 307 308 309 308 309 310 308 311 313 311 310 309 309 310 311 312 314 314 313 315 316 314 313 313 314 314 313 315 315 312 313 312 313 316 316 315 314 316 320 322 319 318 319 317 317 321 319 316 319 326 329 327 328 324 320 322 317 315 321 322 317 318 317 318 318 319 324 324 322 317 312 312 312 312 313 314 314
313 313 313 312 311 310 308 308 308 307 308 308 308 309 308 309 310 309 312 312 309 310 309 308 310 311 313 314 314 313 315 315 314 314 313 314 314 313 315 315 315 317 311 311 318 315 314 320 319 320 322 320 321 322 316 318 323 319 314 318 323 325 328 332 331 329 322 314 318 324 318 315 323 324 321 316 317 320 323 325 318 310 311 313 313 315 314 315
312 312 312 312 311 309 308 309 308 307 308 309 309 310 309 309 309 309 311 310 309 309 308 308 310 311 312 313 313 312 313 313 314 315 313 313 314 313 314 313 312 316 310 311 322 317 312 316 316 318 322 320 321 319 314 319 323 315 311 316 319 322 327 328 330 327 319 315 321 324 315 313 321 328 325 316 316 321 323 322 315 309 312 314 314 315 315 316
311 311 311 311 310 308 309 309 308 308 310 309 310 310 309 310 310 309 308 309 311 310 307 308 310 311 313 313 312 311 313 313 313 314 313 313 314 311 313 312 311 317 317 318 323 318 311 311 312 314 317 317 316 313 311 315 315 311 316 321 319 324 327 328 329 322 313 319 324 320 315 312 315 326 328 318 317 321 321 322 319 313 313 315 315 316 316 317
310 310 309 309 309 309 310 310 307 309 311 311 311 311 310 312 312 310 307 310 314 311 307 308 310 311 313 313 312 312 314 314 312 313 314 314 314 312 312 312 313 317 321 321 321 317 314 314 314 312 311 311 316 316 312 311 310 314 325 325 319 323 324 325 329 321 315 323 321 315 314 313 313 323 328 322 319 318 317 322 324 317 314 317 318 318 318 318
310 309 308 309 309 310 311 309 308 311 312 312 312 310 310 312 311 310 310 310 312 312 311 310 310 312 313 313 313 314 316 316 312 313 316 316 316 314 314 316 317 317 317 318 319 318 318 317 313 312 311 312 320 323 316 316 317 319 324 324 320 322 319 320 326 321 320 320 314 314 317 313 315 319 321 323 322 319 314 314 317 314 313 318 320 319 319 319
310 308 308 309 309 310 311 310 310 311 312 312 310 310 313 313 310 310 312 312 312 312 313 312 311 313 313 312 314 314 315 316 313 313 315 316 316 314 316 317 318 319 318 319 320 318 320 321 315 315 315 313 318 322 319 320 320 318 320 323 322 321 317 319 322 317 317 317 312 314 316 316 320 317 316 320 317 314 310 308 313 313 313 317 319 319 320 319
311 310 309 309 311 312 312 310 310 312 312 311 309 310 313 313 310 311 311 311 313 313 313 314 312 312 312 312 313 314 314 314 314 314 314 316 316 315 316 314 314 321 323 319 319 318 318 320 319 318 317 315 316 318 321 322 319 317 319 318 319 324 323 322 322 319 319 319 315 312 315 323 325 316 314 313 309 310 311 311 314 314 315 316 316 318 319 319
313 311 310 310 312 314 312 310 310 312 311 310 309 310 311 310 311 312 309 311 316 316 313 312 312 312 312 311 312 313 313 314 314 314 315 316 316 315 315 312 313 321 322 316 316 316 315 317 318 314 312 315 317 314 317 320 319 316 315 314 316 322 324 318 315 317 317 317 317 315 319 326 322 315 314 310 308 310 311 312 315 315 315 315 315 317 317 318
314 312 311 311 313 315 312 310 311 312 311 310 309 310 310 309 313 313 310 312 316 314 312 312 312 313 311 311 313 312 311 315 315 314 315 315 315 314 314 313 313 315 316 316 317 316 315 316 316 313 312 313 314 312 312 315 318 316 314 318 317 315 322 320 311 311 312 313 317 316 318 322 317 314 316 314 315 316 313 312 312 314 316 314 315 317 315 316
315 314 313 312 313 315 314 312 312 311 311 310 310 311 310 307 311 314 313 314 314 312 312 313 312 313 312 311 314 313 312 315 315 314 315 314 315 315 315 314 312 311 313 315 317 317 318 318 314 314 316 312 309 311 310 309 314 319 319 319 314 310 318 322 315 317 317 315 318 317 315 318 316 316 319 316 315 319 320 316 310 311 315 315 316 317 314 315
313 314 314 313 314 316 315 314 313 311 311 310 311 314 313 308 310 314 313 311 312 313 315 315 313 313 312 312 313 312 313 315 314 315 315 313 315 315 314 314 312 310 310 309 312 315 318 318 314 313 316 314 311 314 315 311 311 317 318 315 315 317 319 317 315 319 319 315 321 321 314 314 314 317 319 315 315 320 320 320 317 314 313 315 317 316 313 314
310 312 312 313 314 315 316 315 313 312 311 311 310 312 314 313 311 312 312 311 313 314 315 317 315 313 312 312 313 312 313 314 314 315 314 313 314 313 312 313 313 310 308 308 311 312 314 315 315 312 312 313 315 316 318 318 312 312 312 310 316 322 321 318 315 316 317 315 319 321 317 316 316 316 318 315 318 321 319 320 320 313 312 315 317 314 312 313
309 310 310 310 312 313 314 314 313 313 312 311 310 310 312 314 312 311 311 312 315 314 314 318 317 313 313 313 312 312 313 314 313 314 313 312 313 313 310 312 314 311 308 307 310 313 312 311 313 313 311 313 318 317 316 318 316 315 316 314 316 317 317 319 316 314 319 319 319 319 316 320 322 318 316 314 317 321 321 322 318 312 313 317 314 312 312 314
307 308 308 309 310 310 313 315 313 313 312 311 312 312 313 313 312 311 311 312 313 313 314 319 317 314 314 313 312 313 313 314 313 313 314 311 312 313 311 311 312 312 310 308 311 314 312 311 316 317 314 316 318 315 313 317 317 315 316 316 317 316 315 317 315 313 316 316 319 318 313 318 325 320 317 317 317 316 314 313 313 311 312 313 311 311 313 315
306 308 308 308 309 309 311 312 308 309 312 311 310 312 312 310 311 312 311 311 313 312 313 318 319 317 315 312 313 314 313 314 313 313 314 312 312 314 311 309 310 310 311 312 312 312 311 315 321 321 318 318 316 310 307 312 315 315 316 315 315 315 316 317 316 316 315 312 315 317 314 315 318 316 315 315 311 308 307 306 307 309 310 311 312 314 315 316
306 307 308 307 307 308 310 309 306 307 310 309 308 310 310 310 311 312 312 312 313 313 314 317 317 316 316 314 313 313 313 313 313 313 315 313 312 313 311 309 310 310 311 313 312 309 310 316 318 318 320 320 318 313 309 309 313 315 316 316 315 316 318 317 316 317 318 316 315 315 315 315 316 315 310 306 305 307 309 309 308 310 312 313 315 315 316 317
306 307 308 308 308 308 309 309 308 308 307 307 309 311 310 310 311 312 314 313 313 315 317 317 314 313 315 316 315 314 313 313 314 313 314 315 313 311 309 309 310 311 310 312 313 310 311 316 316 316 318 317 318 319 316 313 315 316 317 316 316 319 318 315 314 314 315 320 319 316 315 315 320 319 312 310 313 313 310 311 310 312 315 315 315 316 316 316
306 307 307 309 310 309 308 307 307 308 307 307 310 311 311 311 310 311 314 314 312 313 315 315 312 313 315 315 315 315 313 313 316 313 313 315 314 310 309 309 310 310 310 311 310 310 313 317 315 314 314 313 313 316 317 317 315 316 318 317 316 318 317 315 316 315 315 320 319 315 314 313 315 317 315 316 320 316 311 311 312 314 316 316 315 316 316 316
306 306 307 307 309 309 308 307 307 307 307 308 309 309 311 311 310 309 311 313 312 312 313 312 312 313 315 315 316 317 313 313 316 315 313 315 315 312 309 310 309 308 310 311 308 312 320 318 313 312 312 312 311 313 318 321 318 316 319 318 316 316 316 316 317 317 316 316 316 313 314 314 313 315 318 319 322 322 316 311 312 315 315 315 316 316 316 317
305 305 306 307 308 308 308 308 308 307 307 308 309 309 309 311 311 310 311 311 312 313 313 313 313 315 316 316 318 318 316 315 315 315 314 314 314 313 309 309 310 309 311 311 308 314 321 316 313 313 312 311 312 313 317 320 318 317 317 316 315 315 315 316 316 316 315 314 315 314 313 314 312 313 319 322 324 325 317 310 312 315 314 315 316 315 316 316
303 303 304 306 308 308 308 308 308 308 307 309 309 309 309 310 311 311 311 310 311 313 314 314 314 315 317 317 317 317 316 316 315 315 316 315 315 314 312 311 310 309 311 312 309 313 319 316 315 315 312 312 312 313 317 318 317 317 317 315 315 314 314 316 315 315 315 314 314 314 314 315 313 312 315 317 317 318 315 312 312 313 314 315 315 314 315 315
302 302 302 303 305 306 307 308 308 308 308 309 309 309 309 309 310 311 310 310 311 312 313 315 314 314 315 316 317 317 316 316 316 316 316 317 315 314 316 315 311 309 311 313 310 311 316 320 319 315 313 314 312 314 319 319 315 316 316 315 315 314 314 315 315 314 315 314 314 314 315 315 313 312 312 312 311 312 312 312 311 312 313 313 313 314 314 314
301 301 302 302 303 304 305 308 309 309 308 309 309 309 309 309 309 310 310 311 311 311 312 313 313 313 313 314 315 317 316 316 319 317 315 317 316 315 318 317 312 310 312 314 313 310 312 320 320 315 314 315 313 313 317 317 315 316 316 315 315 314 313 314 314 315 314 314 314 315 315 314 312 311 311 310 310 310 310 310 311 312 313 312 313 313 313 313
301 301 301 302 303 303 304 306 308 310 309 308 309 309 309 309 309 310 311 310 310 311 312 312 312 312 312 313 313 315 314 314 316 315 314 316 316 315 316 313 312 315 316 314 314 313 313 318 319 316 315 316 315 315 315 314 313 313 315 315 314 314 313 313 313 314 314 315 315 315 315 314 312 311 310 309 309 308 308 309 310 312 313 313 313 313 313 313
300 300 300 301 303 303 304 305 307 309 310 309 308 309 309 309 309 309 311 310 309 311 312 311 310 311 312 312 312 313 312 312 313 312 312 313 313 312 312 311 312 316 316 314 314 315 315 316 318 318 317 316 316 317 315 313 313 313 314 314 313 312 312 312 313 313 313 314 315 315 314 314 313 312 312 313 310 308 308 310 311 311 312 312 312 313 313 314
Wind_Speed
21 23 22 22 23 23 24 23 22 22 22 22 23 23 24 24 24 24 24 23 22 22 20 18 17 15 15 15 15 14 12 12 12 15 16 14 13 13 14 12 11 12 11 10 10 9 9 8 8 9 9 7 6 8 8 5 5 3 3 3 2 3 4 5 7 7 4 4 7 12 16 11 5 10 12 8 6 9 12 11 9 14 13 9 8 6 15 23
21 23 23 23 24 24 24 24 24 23 23 23 23 24 24 24 23 22 22 21 21 20 18 17 16 15 15 15 15 13 12 11 13 16 16 13 13 14 15 13 10 11 11 10 11 10 11 10 9 10 9 7 5 7 8 5 5 3 3 3 3 6 4 4 6 7 4 2 8 13 13 12 9 12 13 7 5 9 9 8 9 12 12 10 9 10 17 23
22 22 22 23 25 25 25 25 25 24 23 22 23 23 23 23 22 21 21 20 19 19 17 16 16 15 15 16 15 12 11 10 12 17 15 14 14 15 16 14 10 11 11 11 11 10 11 10 10 10 8 6 4 6 7 5 4 2 3 2 5 7 4 3 4 6 6 4 8 12 10 10 10 13 12 8 5 6 8 10 10 12 14 13 11 14 20 23
23 22 22 23 25 26 26 26 25 24 23 22 22 21 21 21 20 20 20 19 18 17 16 16 16 16 16 16 14 12 10 7 11 16 15 15 15 15 15 14 12 12 12 11 12 11 10 10 10 9 7 5 4 5 5 4 5 2 4 3 5 5 2 3 2 3 8 8 10 12 9 7 10 12 11 9 7 3 11 18 17 16 17 16 15 17 21 23
23 23 23 23 25 26 26 26 26 24 23 22 21 20 20 20 19 19 18 18 17 16 16 16 15 16 16 16 14 12 8 1 8 16 16 16 16 16 15 13 14 14 12 12 12 12 10 10 11 9 5 3 3 3 3 4 5 3 2 2 4 5 2 2 1 1 5 8 10 11 9 7 9 10 11 13 8 7 14 19 20 17 17 17 17 19 21 23
23 23 23 23 24 27 27 26 26 25 23 22 21 21 20 19 19 18 17 16 16 15 15 15 15 16 16 16 15 13 11 2 4 15 17 17 17 16 15 13 14 14 13 13 13 13 10 9 10 9 4 2 3 3 3 6 6 2 2 1 3 5 1 2 1 1 4 10 13 11 8 8 9 7 10 16 15 13 10 12 17 18 16 17 18 19 21 22
22 22 22 22 24 26 27 27 26 25 24 22 21 21 20 19 18 17 17 16 15 15 14 15 15 16 16 16 15 14 15 7 2 14 18 18 17 16 15 14 14 15 14 14 14 13 11 10 9 9 5 3 3 3 4 7 4 3 2 1 3 3 2 2 2 2 5 8 11 10 8 8 10 5 6 16 22 18 9 7 12 17 18 18 19 20 20 21
22 22 22 22 23 25 27 27 27 26 25 23 21 20 19 18 18 17 16 15 15 14 14 15 15 16 16 16 16 13 16 12 3 10 18 18 17 16 15 14 14 14 15 14 13 12 12 11 10 9 4 2 4 5 6 5 2 2 3 3 4 3 3 3 3 4 4 6 8 9 7 7 9 4 4 15 21 17 13 10 9 13 18 19 20 21 21 21
22 22 22 22 23 24 25 26 27 27 25 24 21 20 19 18 17 16 16 15 15 14 14 15 15 16 16 16 15 9 13 15 6 7 15 19 18 16 15 14 14 15 15 15 13 13 12 11 12 9 4 4 5 5 8 5 1 3 5 6 5 3 2 4 3 4 5 6 6 6 3 3 6 3 8 17 19 16 15 13 10 10 14 18 19 20 20 21
21 22 22 22 23 23 24 25 26 26 26 25 22 20 19 18 17 16 16 15 15 15 14 15 15 16 16 16 13 6 11 16 10 8 14 19 18 16 15 14 15 15 15 15 13 12 13 12 12 10 3 5 6 5 6 4 3 6 8 8 6 4 2 2 3 3 3 4 4 4 2 3 3 1 7 11 10 13 17 17 16 13 12 14 16 18 20 22
19 21 22 22 22 23 24 25 25 25 25 24 23 21 19 18 17 16 15 15 15 15 15 15 15 15 15 16 14 8 10 14 11 8 13 18 18 15 14 14 14 15 15 15 13 11 11 10 11 10 3 4 7 4 4 3 5 11 12 7 6 4 1 1 2 2 2 3 2 4 2 3 1 2 10 10 4 8 14 18 19 18 17 16 16 17 19 21
19 19 21 22 22 23 23 24 25 24 24 24 24 22 20 19 17 16 15 15 15 15 15 15 15 15 15 16 17 13 9 10 11 9 12 16 16 15 15 15 14 14 14 13 12 11 10 9 11 9 4 8 8 3 4 5 9 11 9 4 6 8 3 1 2 2 2 2 1 3 1 4 2 9 16 10 5 6 9 15 19 20 21 20 19 19 19 20
18 19 20 21 22 23 23 24 24 25 24 24 24 23 21 19 18 17 16 15 15 15 15 15 14 15 14 12 15 17 10 9 12 11 13 15 15 16 15 15 13 13 13 12 11 11 10 8 9 8 7 10 5 5 8 7 10 7 4 4 3 7 4 3 1 2 2 1 1 3 1 6 7 16 18 9 7 8 8 12 16 19 22 23 22 21 21 20
17 19 19 21 22 23 23 23 24 25 25 24 24 23 21 20 18 17 15 14 14 15 14 14 14 15 14 10 11 16 13 9 12 13 14 16 16 16 15 14 13 11 12 11 10 11 10 8 8 8 8 8 8 10 7 4 5 3 2 3 3 1 4 5 1 4 4 1 1 5 1 6 8 13 11 9 12 13 14 16 16 18 20 23 24 24 23 22
17 18 19 20 22 23 24 24 24 25 25 25 24 24 22 20 18 16 15 14 14 14 14 13 14 13 11 9 8 13 14 11 14 15 15 16 16 15 16 15 13 11 10 11 11 11 10 9 8 8 8 10 13 10 4 4 3 3 2 1 3 3 5 8 1 6 5 2 1 5 1 6 9 10 3 3 8 10 15 17 16 17 18 21 24 24 25 24
17 17 18 19 21 23 24 24 24 25 25 24 24 23 21 19 17 16 14 14 13 14 13 12 14 12 5 6 8 11 14 14 15 17 16 16 15 15 16 15 13 11 10 10 12 13 12 10 8 8 9 9 9 6 4 3 3 4 3 2 2 2 3 5 1 4 3 2 1 2 2 3 5 6 1 3 2 3 8 12 13 15 16 19 21 23 25 24
18 18 18 18 20 22 24 24 24 25 25 24 23 21 20 19 17 16 14 14 13 13 13 11 13 11 4 6 8 11 15 16 17 18 17 16 15 14 16 15 13 12 11 11 12 13 12 9 8 6 5 4 3 5 5 1 3 2 2 2 3 3 2 2 3 3 1 2 1 1 2 6 7 9 8 5 5 6 9 12 13 14 16 17 19 22 23 24
19 18 18 18 19 21 23 24 25 25 24 23 21 19 19 18 17 15 14 15 14 12 11 11 13 8 7 11 9 10 17 18 18 19 17 17 15 15 16 14 13 13 12 11 9 10 9 5 6 3 3 3 2 5 5 5 5 5 3 3 2 2 2 3 3 2 2 2 2 0 2 10 11 13 19 20 15 15 18 19 20 21 22 22 23 25 25 26
19 18 18 19 19 21 23 24 25 25 24 22 20 20 19 17 15 14 15 17 15 9 5 11 17 6 3 12 13 11 17 19 20 20 18 18 16 16 15 12 14 15 12 8 4 6 6 4 4 3 2 3 6 6 7 8 8 9 7 5 5 4 3 5 4 4 1 3 3 5 5 9 11 11 17 25 20 15 19 23 25 27 28 29 30 31 31 32
20 19 19 20 21 22 22 25 26 25 24 22 23 22 18 17 12 8 15 19 17 9 1 10 22 7 6 10 19 15 17 21 21 21 19 18 17 16 14 12 13 11 7 5 3 3 4 4 3 5 8 9 8 7 6 5 7 7 6 5 4 4 3 4 3 5 1 3 4 4 5 9 11 11 15 26 22 15 20 24 28 31 32 34 34 35 35 35
21 20 20 20 22 23 23 26 26 26 25 23 27 24 18 19 12 6 14 14 15 11 1 7 23 14 4 8 20 17 17 19 20 22 20 19 19 15 11 10 8 4 1 3 4 2 3 5 7 8 8 7 6 7 7 7 6 6 6 5 2 3 3 2 1 4 3 1 3 2 3 9 11 11 16 22 17 14 23 25 28 33 34 36 37 37 37 35
23 21 20 20 22 24 24 27 27 27 26 25 32 26 18 22 16 13 17 10 12 14 2 6 21 17 6 7 17 17 16 14 15 22 21 19 19 13 9 7 5 3 1 3 5 2 2 4 9 7 5 7 6 5 7 7 6 5 4 6 3 2 2 3 3 4 5 1 4 5 6 9 10 10 15 20 18 20 27 27 30 33 33 36 37 37 36 35
25 22 20 20 22 23 25 27 27 27 29 30 35 27 19 22 15 14 19 9 9 16 8 9 19 17 9 9 16 17 14 11 13 20 21 20 19 13 10 7 4 4 2 3 6 5 3 6 7 7 9 8 5 3 7 7 4 4 4 5 3 2 1 1 3 4 4 2 2 4 6 9 7 6 12 19 21 23 26 27 29 31 32 36 35 34 33 32
25 22 21 21 22 23 25 26 26 29 32 33 34 27 20 22 17 15 16 5 2 12 11 12 17 19 13 10 16 16 12 11 13 20 24 22 19 12 9 8 6 4 4 5 8 7 5 5 3 10 7 7 7 3 6 6 1 0 3 6 3 3 4 3 1 2 3 4 3 4 6 7 4 4 8 10 9 13 18 19 23 25 25 27 27 26 26 23
24 22 22 22 22 24 25 25 26 31 34 34 33 27 21 22 19 16 12 4 2 6 9 12 12 16 17 12 16 17 11 9 12 20 25 24 20 12 7 8 6 4 4 5 7 6 5 3 6 10 4 5 8 3 5 7 4 2 3 6 7 7 6 3 2 4 4 4 4 4 3 6 5 5 7 6 5 9 12 12 21 26 21 20 20 18 16 14
24 22 22 23 23 24 24 23 26 32 33 34 32 25 22 22 21 17 9 4 1 3 6 11 9 12 17 13 16 15 6 6 11 19 25 24 20 13 7 5 3 3 6 5 4 3 2 0 4 7 6 6 6 3 5 6 6 2 4 5 7 7 8 6 4 4 1 2 3 3 2 5 7 6 8 6 7 10 13 11 20 29 25 21 21 19 17 15
22 22 22 23 24 25 26 23 27 33 32 32 31 26 23 23 20 15 6 5 3 4 7 9 8 11 14 13 19 14 3 6 10 16 24 22 18 13 7 4 2 2 5 5 2 2 2 3 5 6 6 6 5 3 5 7 8 3 4 6 8 8 8 6 6 4 2 3 4 4 4 2 6 7 6 4 6 9 11 11 15 22 21 17 17 18 17 14
21 22 21 23 24 26 26 22 29 35 30 28 31 27 23 23 21 12 5 2 3 6 6 8 9 12 13 16 22 12 5 12 9 10 22 21 16 10 4 6 6 5 3 5 4 3 2 4 4 6 6 4 5 4 5 8 6 4 3 7 7 7 7 5 6 4 1 1 4 4 2 2 6 8 5 4 4 8 11 11 12 16 19 17 16 14 10 8
21 22 22 22 22 24 24 20 27 32 26 26 30 25 22 24 19 8 3 2 3 4 4 9 11 11 13 16 16 8 7 9 4 10 21 18 14 7 2 6 8 7 3 4 5 3 1 2 5 6 6 4 4 1 4 4 2 4 6 7 6 6 6 5 5 4 3 2 4 5 3 2 5 7 5 2 3 7 10 10 10 15 18 13 9 5 3 6
19 21 22 23 24 27 21 17 25 26 22 27 28 24 24 23 13 5 2 4 2 2 3 9 10 10 13 11 5 3 5 2 4 13 15 11 11 6 6 7 7 7 4 6 4 2 2 1 0 3 3 5 5 4 2 2 5 10 8 7 7 6 5 4 3 4 3 3 6 6 4 2 4 7 5 4 4 6 5 6 8 12 14 7 3 5 6 7
17 20 22 25 30 29 19 18 26 25 23 27 25 25 24 13 4 4 5 3 2 2 3 4 4 7 14 11 4 2 2 2 5 12 8 4 7 5 6 6 4 5 3 3 2 4 4 2 1 1 1 5 8 6 5 5 6 8 5 5 5 3 4 4 4 3 1 5 6 5 2 3 4 7 5 6 7 6 6 6 8 10 13 8 8 8 7 8
15 20 24 28 31 25 18 22 27 25 25 27 27 28 18 5 2 5 4 2 2 3 4 5 3 5 11 9 5 4 3 2 3 6 5 4 5 4 4 5 4 4 1 3 2 3 2 0 2 2 1 4 6 5 5 5 4 5 5 6 5 2 2 2 3 0 3 6 4 3 1 3 6 8 8 10 11 8 9 10 9 11 12 8 10 9 8 8
16 21 25 28 26 20 18 25 28 26 27 29 28 21 8 3 7 8 4 3 2 2 4 5 3 5 10 8 4 4 3 2 4 3 2 3 4 5 3 3 6 5 3 5 4 2 1 4 3 1 2 5 5 6 4 1 0 4 5 5 4 3 2 2 4 2 4 4 3 3 2 3 5 5 8 13 11 6 6 10 11 13 11 5 4 5 6 6
17 21 24 23 21 16 17 26 29 24 26 30 23 11 5 5 8 8 7 5 1 1 2 4 6 7 8 6 4 5 3 1 4 4 2 4 5 6 6 5 4 5 4 4 3 6 4 4 4 4 2 6 6 4 7 6 4 3 4 6 5 5 5 4 4 3 4 3 3 3 1 3 3 3 6 12 13 13 14 16 15 13 10 7 6 4 4 4
15 18 21 21 19 15 18 26 27 21 26 26 14 5 8 9 7 6 8 5 1 2 3 3 8 8 5 1 1 5 3 2 4 4 3 5 6 7 6 6 6 4 6 5 3 3 4 4 5 2 1 8 6 3 6 7 2 1 2 5 3 5 5 2 3 5 3 2 3 2 4 5 4 6 9 10 12 14 15 16 15 14 10 9 10 7 5 6
19 18 18 20 20 17 19 25 23 21 26 20 8 6 9 6 3 5 6 5 4 5 6 5 4 5 5 2 1 6 1 2 5 4 4 4 3 6 6 5 7 6 6 7 3 2 3 3 5 4 1 3 2 2 4 4 3 2 2 3 5 4 7 5 2 1 3 2 3 1 5 6 4 7 9 6 8 10 9 11 14 14 12 11 11 8 6 7
24 22 18 19 21 19 19 22 20 22 24 14 6 8 5 1 2 3 3 6 8 10 9 4 2 4 6 4 5 8 3 2 4 3 4 3 3 6 7 5 7 10 8 5 2 4 5 1 4 2 1 2 3 3 4 4 4 5 3 6 4 2 4 4 2 3 3 3 4 1 5 5 2 5 6 4 6 9 9 9 10 12 14 14 14 12 9 7
20 21 18 19 22 21 20 19 18 21 19 8 7 9 2 1 1 1 2 5 9 8 6 4 3 3 6 6 5 7 5 4 5 4 4 3 4 7 9 5 6 12 13 5 1 2 5 2 4 2 2 4 4 3 2 5 4 4 4 4 4 2 1 2 2 2 1 2 4 4 5 4 5 6 4 1 7 9 10 9 8 10 13 15 17 14 7 3
14 15 12 14 21 21 20 18 17 19 13 5 9 9 1 1 0 2 2 4 6 6 5 5 3 2 5 7 5 6 6 6 7 5 4 4 5 5 10 8 4 11 16 9 3 2 4 3 3 2 1 2 4 2 5 1 4 4 3 3 3 2 4 3 3 4 3 3 3 4 4 4 7 7 5 8 10 9 10 9 8 12 17 17 17 14 6 2
10 9 5 10 17 18 20 20 16 13 8 5 7 5 1 1 1 2 3 4 3 3 3 5 3 4 5 4 4 5 5 5 7 6 4 5 5 4 8 10 4 8 13 7 4 3 3 3 4 3 3 1 2 3 6 7 4 3 3 4 2 1 2 2 1 2 4 4 3 3 5 6 6 4 8 11 9 8 10 9 8 16 22 20 16 13 8 2
8 3 2 9 13 15 20 18 10 6 5 2 1 1 1 1 1 1 3 3 2 2 2 4 4 5 6 5 4 5 5 4 6 6 3 6 7 5 8 12 8 8 7 4 3 4 2 3 4 1 0 3 4 3 3 7 8 6 6 7 7 5 4 3 3 1 3 3 4 3 5 8 6 4 7 8 7 9 11 9 10 17 22 20 16 11 2 8
10 2 2 9 12 14 16 9 1 2 4 3 1 2 2 2 2 0 1 3 3 2 2 3 3 3 5 5 4 6 6 5 6 6 5 7 9 6 7 13 17 17 12 5 5 4 4 4 5 3 4 5 5 4 1 3 3 3 4 5 6 6 6 6 6 4 2 1 2 4 2 8 5 4 6 6 5 8 9 9 13 16 15 14 10 2 12 15
12 5 5 11 12 13 11 3 2 1 1 1 2 2 3 2 2 1 0 1 2 2 2 2 2 2 3 3 4 7 8 5 6 8 6 6 8 6 8 15 20 18 11 5 4 4 4 4 4 1 3 3 5 5 3 2 2 1 4 3 5 4 4 5 4 4 4 3 3 3 3 8 4 1 3 6 7 9 9 10 13 11 5 2 9 14 17 16
13 7 8 13 15 16 10 2 1 3 1 1 3 2 1 1 1 2 1 0 1 2 2 1 0 1 2 2 4 7 8 5 5 8 6 3 5 5 9 17 18 12 8 7 8 9 6 2 4 3 2 3 4 4 3 2 2 3 3 3 4 4 6 5 2 3 1 5 7 5 7 8 5 5 3 4 6 7 6 3 4 3 8 14 16 15 14 14
11 6 6 12 19 21 13 3 3 4 2 4 4 4 3 1 2 3 3 1 1 2 3 1 1 2 2 2 3 4 7 4 2 6 4 2 2 1 5 15 19 13 8 6 10 13 9 3 5 7 6 7 6 5 5 4 3 1 2 4 5 7 9 5 2 3 4 6 7 6 9 8 3 4 3 3 5 3 1 3 4 9 14 14 12 10 10 11
7 4 3 6 13 17 14 10 8 4 3 5 3 4 7 5 2 3 5 2 1 2 3 1 2 3 3 3 4 3 5 1 2 3 5 4 3 1 1 9 16 14 6 5 12 13 4 2 6 9 11 12 11 8 5 8 7 6 9 10 9 9 12 8 4 5 9 8 5 9 12 12 8 3 3 6 5 4 4 5 5 9 12 11 8 7 7 8
4 2 4 4 4 6 7 11 11 5 4 7 4 3 8 8 3 2 4 4 3 5 3 3 1 3 2 4 4 3 4 1 2 3 3 4 3 2 1 3 8 10 5 6 15 11 3 3 8 9 12 13 10 7 7 10 12 14 16 14 12 11 13 12 10 12 12 7 10 14 11 12 16 9 6 9 7 4 6 8 11 10 9 8 7 8 7 6
3 1 4 5 3 2 4 8 11 7 6 8 4 3 7 7 5 4 4 2 2 5 3 1 2 5 4 5 4 3 4 2 1 3 1 1 1 1 2 1 1 4 3 5 10 8 3 5 8 7 11 14 9 5 7 9 10 12 15 16 15 15 15 15 17 18 14 10 14 15 11 12 18 13 10 12 10 10 13 13 11 10 8 8 9 11 11 10
4 2 3 5 3 2 3 9 13 9 7 9 5 4 8 9 8 5 3 3 1 4 6 5 6 6 6 4 4 4 5 4 3 4 3 3 2 2 2 0 1 2 4 4 4 3 3 5 6 7 9 14 11 7 8 10 9 8 12 14 14 16 18 20 21 22 20 16 15 16 13 15 17 12 10 15 19 21 21 14 8 10 12 12 14 18 21 21
4 2 3 3 1 1 3 9 12 8 6 8 6 4 7 10 10 7 3 5 5 3 6 10 8 6 6 6 4 3 6 6 5 4 5 4 2 2 2 3 2 2 3 3 2 2 3 4 3 6 5 9 11 8 8 10 9 8 10 10 10 14 17 20 20 18 16 14 15 17 16 16 16 10 10 18 22 20 19 18 19 23 24 23 26 30 32 31
7 3 2 2 1 2 2 4 6 6 5 7 6 5 7 10 11 8 4 7 9 7 9 12 7 4 4 6 7 9 10 6 6 6 7 5 4 3 1 2 4 3 3 1 1 2 3 3 0 4 4 8 8 7 8 7 5 6 9 10 12 13 14 15 15 13 13 13 15 15 13 15 13 7 10 17 15 12 16 21 24 28 30 31 33 35 34 30
12 5 2 1 1 2 3 1 3 5 5 7 8 6 7 9 11 9 4 7 12 14 16 14 9 5 3 6 11 15 14 10 5 5 4 2 1 2 2 4 5 4 3 2 1 1 3 3 2 3 4 8 6 5 8 5 2 5 10 15 17 15 13 11 10 13 16 15 12 12 13 16 9 5 7 10 7 11 19 25 26 27 29 31 32 31 28 24
Wind_Direction
194 185 183 181 177 177 175 175 177 179 181 181 180 181 179 177 182 184 183 182 178 177 177 181 185 192 198 196 192 195 201 205 208 212 214 208 201 201 197 197 197 195 192 183 179 178 172 168 175 171 173 169 156 166 159 156 161 136 99 102 178 187 200 188 177 191 168 187 191 177 174 161 151 173 183 191 194 185 175 191 199 197 214 219 204 199 184 183
196 187 184 180 179 179 176 175 178 181 181 182 182 182 181 178 182 184 184 182 179 177 176 180 186 193 196 193 192 197 205 210 216 216 210 200 198 199 196 195 195 195 189 182 181 177 172 171 172 167 165 159 142 162 167 169 154 121 102 120 213 203 206 201 186 197 177 182 183 175 179 172 166 169 171 181 191 179 176 198 202 203 210 201 198 199 188 186
196 188 185 182 181 180 178 178 178 181 182 184 185 185 184 179 182 186 185 184 180 178 178 181 188 194 192 190 192 197 208 218 227 219 203 195 196 194 194 199 199 194 189 182 179 173 172 172 166 160 155 147 135 156 163 166 169 139 115 137 238 213 210 232 220 209 207 221 173 168 177 174 173 170 171 183 179 184 199 199 198 205 205 196 190 187 187 190
196 188 186 184 184 182 181 180 179 181 182 186 188 188 187 182 182 188 188 187 183 181 182 185 190 193 190 188 190 196 206 229 235 216 197 194 195 190 193 197 197 195 191 183 176 170 169 170 164 158 148 142 135 158 168 166 182 170 136 181 228 193 174 224 232 226 223 224 183 166 160 168 182 178 180 170 151 235 227 208 206 211 204 194 188 184 188 193
198 191 188 186 186 186 184 182 180 180 182 186 188 190 190 185 184 190 192 191 189 187 187 189 191 192 189 187 189 193 188 209 232 209 196 195 193 193 193 191 193 195 191 184 178 172 169 167 166 163 145 140 132 142 189 166 154 145 170 234 187 159 139 196 212 259 216 199 174 160 152 173 182 186 196 178 169 227 228 220 218 220 213 206 200 191 190 195
200 195 191 188 187 189 187 184 182 181 182 187 189 192 192 189 188 192 196 196 195 193 192 192 191 191 189 188 190 188 182 165 216 197 194 194 192 195 194 191 192 193 192 186 181 177 173 165 165 168 143 112 157 149 166 164 153 151 244 279 158 179 192 140 159 225 182 167 166 167 165 173 173 196 211 200 212 224 226 235 228 228 225 219 214 201 197 199
199 196 194 191 190 191 189 187 184 182 183 187 191 193 194 192 191 195 201 202 201 198 196 196 192 192 191 190 190 190 201 223 199 186 192 193 193 194 193 193 192 193 194 189 187 188 182 172 166 166 136 86 178 169 139 156 150 129 182 216 150 197 220 142 108 138 175 172 172 173 173 179 179 194 219 218 230 233 237 251 233 232 228 222 218 212 211 209
196 195 195 194 194 193 191 190 187 184 183 186 191 194 195 195 194 199 204 206 205 201 199 199 195 193 191 191 191 193 213 222 189 187 193 193 195 193 193 194 192 194 194 193 196 196 191 183 174 167 146 137 182 165 141 139 74 101 165 183 144 143 195 167 114 119 154 166 164 165 176 195 193 200 248 235 237 235 234 239 236 233 226 222 221 222 221 217
195 195 195 196 196 194 194 193 190 187 184 185 190 194 196 197 197 201 206 209 207 203 201 201 199 194 191 193 190 194 215 210 201 206 196 193 195 192 194 194 193 193 192 194 197 197 195 188 183 180 182 190 167 150 151 143 251 194 153 156 138 103 145 168 154 124 132 152 156 160 176 207 198 244 270 250 246 240 234 230 232 230 221 220 222 226 227 225
195 196 197 198 197 195 194 194 193 191 187 185 188 194 197 198 201 202 206 210 209 206 202 201 201 195 192 191 185 190 211 207 215 221 196 193 194 193 195 193 193 193 192 193 194 196 194 192 191 183 180 177 151 138 158 154 208 174 128 111 97 83 113 157 172 144 133 145 153 166 199 245 195 211 259 252 251 240 233 229 230 231 225 222 224 230 233 234
198 198 198 199 198 196 193 194 195 193 191 187 187 192 196 198 202 203 204 209 210 208 202 202 201 196 195 191 186 193 204 206 216 215 196 193 193 193 194 192 192 192 193 192 191 190 188 194 188 177 180 168 146 120 149 168 166 148 126 96 30 24 73 103 151 165 157 136 142 144 161 267 130 187 240 239 254 247 234 231 232 233 234 234 235 236 237 237
200 200 198 199 199 197 195 194 194 194 192 189 188 191 195 198 202 203 203 207 210 208 203 201 200 198 196 194 200 204 203 209 212 207 196 192 190 189 188 188 189 191 193 192 189 183 177 182 180 183 183 154 147 105 137 151 138 130 116 102 349 3 13 310 119 160 182 130 147 115 94 281 225 228 238 234 246 254 234 232 234 236 240 241 241 241 239 239
201 201 200 199 200 198 196 195 194 194 193 191 190 190 192 197 200 202 202 204 209 208 203 200 200 199 194 196 209 209 212 220 210 201 193 189 186 184 182 182 184 187 191 191 191 183 176 178 181 187 167 151 145 120 135 129 124 118 73 97 23 9 346 297 76 154 177 129 168 128 240 273 253 243 242 237 248 252 242 240 238 239 242 243 242 241 240 239
202 200 200 199 200 200 198 196 194 194 193 192 191 189 191 194 198 202 201 202 207 206 203 200 199 198 195 202 216 212 218 223 204 194 188 185 180 179 177 175 177 182 187 191 194 188 182 181 176 169 155 149 134 123 115 68 93 97 48 61 47 97 273 300 15 156 155 193 191 118 185 261 273 272 260 246 253 256 252 250 247 244 243 243 242 241 242 241
206 199 196 198 200 200 200 198 196 195 194 193 192 189 188 191 196 200 200 202 205 204 201 199 196 192 197 214 220 212 214 211 195 187 182 180 178 177 175 173 172 175 182 186 189 187 180 176 169 150 132 136 131 118 65 19 33 39 98 315 345 165 260 308 266 169 159 195 146 109 200 265 278 288 318 261 258 256 250 249 248 248 245 244 243 242 245 246
208 199 194 197 199 200 201 199 197 197 195 195 194 189 186 189 193 197 200 200 200 201 196 195 192 184 187 217 215 208 205 200 188 182 180 177 177 178 176 176 177 177 178 176 180 180 174 166 150 130 123 132 128 104 63 45 354 1 102 192 256 170 264 314 284 211 176 137 100 103 215 262 290 273 70 48 327 285 260 255 250 250 251 249 248 247 249 251
208 202 197 197 199 200 201 199 198 197 196 196 196 189 184 186 189 193 196 195 196 194 190 188 184 185 215 222 210 204 197 193 186 182 178 175 177 178 177 179 180 182 175 166 170 171 170 161 139 129 109 109 111 98 94 59 274 291 58 131 217 190 198 283 302 265 128 112 249 26 232 248 276 275 269 283 293 299 289 276 268 264 260 257 254 252 252 253
208 207 204 202 201 199 200 200 198 197 195 194 195 191 184 182 185 188 192 191 184 175 180 182 169 175 238 221 205 197 193 190 185 182 179 176 176 175 176 178 177 175 162 155 162 165 164 146 127 130 50 66 125 119 135 207 200 190 180 145 208 215 198 245 268 239 100 83 226 172 273 261 269 278 274 271 274 285 284 280 279 275 270 265 261 258 256 257
208 212 210 208 205 200 198 198 197 196 192 190 192 188 178 170 169 178 187 184 173 158 175 186 174 160 280 207 196 192 190 186 184 183 180 177 174 174 175 173 173 167 152 146 161 162 146 107 101 124 137 166 192 173 174 195 172 169 175 146 157 177 230 242 248 267 149 120 226 216 232 264 270 277 277 273 275 282 280 278 277 273 270 266 263 261 260 259
207 214 215 212 208 203 197 195 196 193 188 189 188 180 166 156 146 162 180 179 177 167 101 191 188 197 2 181 186 186 183 181 183 183 180 179 175 172 169 164 165 159 149 154 165 157 126 135 174 185 191 195 197 176 148 146 137 136 132 115 145 174 240 257 272 306 50 145 252 237 232 263 268 272 273 274 279 283 275 273 270 267 265 263 262 262 260 259
203 211 219 219 211 205 200 194 193 191 186 187 186 179 170 164 157 166 172 177 189 183 356 200 193 209 318 174 180 179 174 176 183 183 180 180 175 170 170 160 149 148 186 146 123 104 113 162 211 210 196 182 165 146 115 95 91 101 129 132 145 185 227 256 260 317 9 140 266 352 307 266 260 266 271 274 278 267 260 259 261 262 262 262 262 261 262 262
202 210 219 225 217 208 203 196 191 189 185 185 187 185 182 178 177 181 174 174 197 192 257 209 193 208 246 189 181 175 169 170 184 188 183 178 175 176 175 153 136 155 205 105 109 90 113 213 232 207 144 103 98 117 106 91 88 86 117 133 151 209 242 288 297 332 18 86 271 353 336 272 256 258 263 263 258 256 258 256 259 263 263 262 262 263 265 267
199 205 213 226 222 211 206 198 191 189 186 186 189 188 185 183 177 177 175 165 189 196 216 203 194 204 208 185 183 178 171 168 182 190 185 179 178 179 170 148 132 143 145 157 148 140 169 250 238 167 135 113 96 88 96 88 83 89 109 132 174 233 173 249 293 328 14 72 278 334 317 283 272 270 264 259 255 261 266 263 262 263 263 266 266 267 268 270
195 201 211 224 225 214 206 199 191 189 188 188 190 189 187 184 173 167 168 125 145 195 206 201 196 202 199 181 184 186 183 180 185 188 186 182 176 174 173 154 128 134 175 178 154 159 203 261 166 131 130 124 118 125 125 126 146 65 139 144 164 195 169 187 276 335 359 18 30 17 324 292 308 325 285 273 268 267 270 272 271 265 263 268 269 267 266 268
196 203 212 220 226 217 204 197 192 188 188 188 188 187 186 185 173 162 155 81 44 192 200 201 202 207 201 188 185 186 186 192 194 189 187 186 177 166 165 159 146 169 188 148 134 173 229 258 137 126 101 101 118 162 182 159 163 265 223 178 171 171 162 160 53 53 32 351 348 29 342 285 316 320 273 289 331 296 286 287 281 277 272 268 266 265 264 265
200 206 213 219 224 214 196 192 190 187 187 189 185 181 185 184 171 163 145 52 301 200 178 190 197 201 198 192 179 169 174 214 200 190 186 186 184 170 153 155 132 170 174 139 132 189 225 102 116 130 123 108 113 173 210 160 131 214 238 173 147 132 130 138 115 88 109 256 311 51 126 264 308 291 259 294 329 302 296 294 280 276 274 271 270 271 269 264
202 207 213 221 223 207 189 187 188 185 185 187 182 178 184 180 168 165 132 32 270 181 150 177 182 184 190 186 172 160 150 185 175 187 185 183 188 177 166 177 105 145 169 136 148 231 161 100 66 96 106 106 127 188 211 148 127 216 232 130 121 119 133 145 116 104 194 236 325 16 119 232 291 269 261 319 325 301 295 290 279 273 273 278 279 280 278 262
197 204 211 220 222 202 185 186 189 184 181 182 179 178 181 173 165 161 122 50 208 148 144 175 170 175 180 174 174 168 138 155 150 186 185 181 185 175 172 197 160 151 161 134 181 255 127 154 161 125 102 126 178 214 188 137 117 237 205 119 118 123 128 120 101 98 42 5 311 310 137 194 269 275 301 339 307 290 281 273 274 283 291 294 286 282 276 242
195 204 210 215 211 189 181 191 190 182 176 175 177 178 172 164 159 140 98 185 161 112 142 164 162 173 168 163 177 174 138 154 145 171 177 178 184 173 148 187 153 122 80 97 169 233 35 188 198 142 132 182 199 228 175 141 106 173 139 96 78 74 81 77 89 98 47 6 254 237 187 200 265 281 305 327 274 262 266 268 273 294 306 304 288 266 200 186
194 200 204 205 192 176 181 192 180 173 168 169 174 172 161 157 152 131 186 216 150 100 135 157 169 172 154 149 182 180 140 153 121 144 160 171 176 158 121 151 135 110 51 33 99 232 325 349 284 113 148 175 139 81 66 89 131 137 112 73 62 37 38 47 51 80 65 290 256 240 215 176 272 277 257 230 230 219 243 287 293 308 328 349 71 111 133 155
188 191 190 189 180 172 175 177 169 164 161 162 165 161 154 146 123 150 191 202 113 108 113 148 176 158 155 160 174 167 109 44 134 144 150 153 158 144 122 138 115 90 53 26 56 318 351 54 336 338 140 130 106 67 40 58 107 116 85 84 89 5 13 25 359 45 124 253 262 266 243 150 225 259 250 245 254 224 218 269 282 300 328 10 78 99 119 141
172 176 174 173 172 168 166 166 162 158 155 156 158 156 149 124 176 197 199 153 147 183 170 176 199 168 165 160 145 151 113 84 168 154 149 145 158 176 163 168 154 108 171 192 163 327 360 87 304 331 232 167 117 76 46 21 36 79 89 97 92 2 9 351 308 328 224 245 269 286 243 197 233 247 255 264 269 247 220 233 254 279 307 11 74 92 105 126
157 161 166 168 165 159 160 162 160 156 155 155 156 153 132 118 195 209 212 181 193 199 158 154 148 142 152 147 148 163 124 141 190 156 139 140 158 206 242 199 151 126 184 181 131 136 268 305 308 72 258 219 160 125 134 225 69 125 130 125 127 121 102 264 265 278 262 258 296 295 250 261 276 265 246 249 258 259 239 253 275 283 290 334 58 103 111 133
151 159 162 162 157 149 155 163 162 159 159 158 155 145 128 177 202 204 201 207 222 61 85 119 113 119 144 155 183 174 127 170 178 132 122 132 149 202 234 222 166 100 112 151 151 169 188 273 222 171 202 196 181 168 156 146 146 175 156 132 146 157 158 210 216 210 246 276 307 297 250 209 234 284 256 252 269 281 273 274 284 286 284 284 258 206 168 195
153 158 160 161 160 151 153 165 167 162 163 162 153 148 176 195 213 200 191 194 168 71 48 90 114 128 160 134 194 189 161 189 172 127 152 169 175 194 197 203 192 132 131 162 202 172 169 249 254 295 184 163 171 195 138 114 112 233 119 109 163 184 145 135 185 176 175 320 316 260 236 216 215 278 279 272 286 286 273 269 270 272 277 273 260 242 217 224
166 161 164 168 164 151 151 166 171 167 168 163 147 185 197 202 214 195 176 151 146 130 103 86 89 129 171 139 180 214 214 119 156 150 186 198 213 200 194 205 192 175 165 160 177 169 153 257 295 349 7 141 135 176 131 116 165 169 129 174 209 170 113 112 226 33 79 258 279 220 250 288 319 289 286 291 298 301 291 271 262 264 272 277 271 255 246 249
172 168 172 174 164 152 152 165 170 171 173 168 170 199 202 180 176 179 154 128 138 138 124 131 150 150 170 171 188 199 187 119 151 169 192 198 236 199 196 225 192 184 189 154 165 201 152 216 304 32 146 304 13 88 62 45 111 130 180 204 185 104 85 110 197 356 44 247 276 265 246 281 311 273 309 341 283 288 293 278 277 277 271 270 266 262 272 273
168 169 174 177 168 157 152 161 170 171 170 170 203 213 199 112 180 125 133 132 131 134 133 158 168 147 167 179 188 184 172 168 174 181 178 189 244 200 176 206 194 186 199 177 119 216 140 142 305 14 172 294 1 95 85 17 62 121 173 166 118 136 183 96 147 187 136 237 274 294 274 257 213 234 301 299 222 244 264 272 289 276 258 256 259 265 289 276
157 160 166 180 178 170 160 159 164 166 165 181 210 216 196 115 192 42 120 151 130 129 156 179 162 123 172 172 164 170 180 180 172 178 180 183 235 208 174 191 193 185 196 183 144 200 137 145 260 320 279 306 19 135 197 188 43 58 97 105 84 138 169 160 154 166 171 198 250 306 320 267 226 214 206 216 218 216 235 255 270 264 259 256 253 261 298 4
158 149 157 183 182 181 172 162 158 162 175 206 202 204 42 106 180 46 99 144 134 107 164 190 164 143 168 165 153 169 183 176 167 181 206 189 212 241 196 190 172 173 185 168 136 174 127 159 221 307 336 221 194 220 189 164 143 109 128 158 184 87 104 161 180 126 141 162 193 268 288 267 249 206 191 211 221 208 214 228 240 252 256 254 256 274 297 37
164 127 196 183 175 179 175 166 164 175 195 225 173 139 41 121 155 57 78 108 100 62 118 159 154 151 155 156 174 178 161 156 170 183 213 202 204 235 212 191 158 136 149 138 172 186 148 161 175 150 242 204 228 261 179 172 176 168 177 188 184 166 129 159 235 230 126 156 173 184 264 267 248 204 197 205 214 216 216 218 233 247 255 265 282 294 259 130
163 111 207 184 179 181 173 162 187 196 190 211 168 125 128 106 96 139 64 76 82 54 67 105 116 146 157 160 171 167 156 161 180 185 207 217 209 211 208 187 163 150 151 168 199 178 116 113 129 160 218 217 244 280 235 196 184 159 200 196 177 179 152 155 213 221 132 183 169 127 267 274 252 190 206 224 237 238 239 242 250 263 279 287 285 186 133 127
168 166 173 181 190 189 174 146 337 189 183 198 144 108 119 116 93 106 57 45 73 51 51 90 99 127 164 168 150 162 171 173 189 197 206 221 217 213 199 180 165 158 158 171 192 163 113 115 137 208 299 306 311 331 11 53 97 195 237 184 155 191 159 139 180 176 154 199 171 112 258 268 285 304 244 266 278 275 275 264 255 268 291 168 147 132 127 124
171 172 174 184 193 192 185 160 159 178 172 108 128 130 128 142 162 147 142 237 150 107 100 119 94 106 158 144 134 173 185 177 201 210 207 216 218 210 193 180 171 166 176 186 180 174 179 165 134 129 353 337 332 333 318 266 188 210 236 167 149 136 101 94 118 116 207 221 176 166 239 254 299 332 296 292 305 303 305 279 228 177 127 130 133 128 126 124
167 168 184 192 190 188 190 191 152 154 135 130 155 179 169 174 220 184 162 130 146 138 120 142 146 91 112 114 91 162 184 163 186 203 202 233 235 214 187 185 182 182 198 203 171 166 179 192 149 159 192 208 212 219 217 198 172 214 214 176 173 146 138 163 162 127 232 233 172 184 239 253 308 332 289 300 324 317 154 134 137 136 135 137 139 137 132 130
164 174 184 194 194 191 194 195 178 158 148 153 157 187 189 199 225 185 165 159 180 129 87 73 150 91 73 121 109 156 196 165 72 170 198 215 228 326 186 190 192 194 199 183 166 156 145 213 190 195 207 209 214 214 166 132 147 207 214 193 188 179 175 178 150 175 220 229 210 222 237 249 257 246 266 281 266 229 191 163 160 156 153 154 158 161 156 150
167 200 170 167 201 203 199 193 184 171 167 172 162 166 188 197 201 169 183 198 194 164 102 33 153 147 141 157 143 168 195 149 89 150 188 203 221 323 15 170 192 200 199 168 168 154 95 226 211 212 224 228 226 210 167 151 171 200 209 199 190 188 184 183 197 215 217 218 242 237 220 241 253 233 222 256 248 235 237 209 191 182 174 178 197 213 217 202
182 232 185 173 182 209 207 190 183 175 162 171 175 153 171 186 183 177 189 185 167 172 169 327 214 185 172 160 155 166 166 150 193 195 152 162 201 28 39 52 133 185 181 161 171 156 124 217 215 202 226 242 238 188 173 185 192 200 208 203 193 189 188 194 212 222 215 209 239 241 206 219 248 238 213 230 229 227 239 225 198 195 208 224 240 253 261 261
204 254 206 189 184 199 186 167 168 172 166 169 180 165 169 184 191 187 153 116 147 193 192 217 220 193 185 170 141 153 177 175 197 205 156 122 136 106 114 133 59 137 146 147 179 165 149 220 218 186 217 247 240 196 177 194 204 211 216 208 196 193 195 201 213 222 222 220 235 248 236 231 244 241 217 227 231 232 241 244 234 237 244 253 267 275 278 279
210 245 196 178 165 132 146 153 161 171 174 176 192 194 182 186 188 186 150 149 167 176 197 215 211 176 187 200 173 192 208 181 161 188 177 138 137 169 179 191 168 83 98 135 173 170 180 231 219 162 196 251 242 210 188 197 205 216 229 226 209 204 206 212 218 222 226 230 237 247 255 255 250 237 228 238 236 233 241 249 251 255 260 265 270 274 276 277
208 227 163 147 153 161 148 146 160 170 178 188 195 184 186 196 189 176 173 190 183 164 186 206 194 137 168 203 209 226 224 187 130 133 147 136 142 159 136 160 157 104 63 111 130 135 180 229 344 121 184 246 240 196 178 189 209 233 245 238 218 211 214 218 220 220 218 223 233 240 249 258 251 215 224 242 231 215 233 243 246 250 253 258 263 265 266 267
210 212 193 141 112 191 177 116 156 181 192 196 191 177 177 188 181 167 177 217 203 192 196 194 165 130 161 195 218 229 227 219 206 180 182 194 161 148 98 107 130 122 107 120 102 130 152 179 212 149 191 247 246 159 143 142 171 243 241 230 220 217 218 218 222 228 221 214 218 224 231 247 246 164 204 239 208 200 227 235 239 243 246 249 252 253 256 264